QTR31 LEBL-OTHH

Flight info

Callsign QTR31
Flight time N/A
Altitude 34000
Route DIPES N725 OSPOK/N0485F370 DCT NOLVI DCT ORKUM/N0479F360 DCT ELSAG/N0486F380 DCT ALG/N0482F370 DCT VENIM DCT ARLOS DCT SALUN N705 MMA/N0488F390 N705 BOPIX N710 TAKRI M720 FYM M872 BDB Y214 RAPMA/N0451F290 Y214 ASPUS Y432 LADBO T142 LAEEB
Aircraft A388/J-SADE2E3FGHIJ3J4J5M1RWXY/LB1D1

Departure

Time 2026-05-06 21:26
Airport Josep Tarradellas Barcelona-El Prat Airport (LEBL)

Arrival

Time N/A
Airport Hamad International Airport (OTHH)
Time Latitude Longitude Altitude Speed Heading
2026-05-06 20:28 41.30479 2.08618 23 ft 0 kts 64°
2026-05-06 21:11 41.30470 2.08592 28 ft 4 kts 68°
2026-05-06 21:12 41.30463 2.08570 29 ft 4 kts 75°
2026-05-06 21:12 41.30462 2.08525 29 ft 4 kts 123°
2026-05-06 21:12 41.30469 2.08515 27 ft 0 kts 153°
2026-05-06 21:16 41.30468 2.08516 26 ft 2 kts 153°
2026-05-06 21:16 41.30440 2.08533 28 ft 7 kts 155°
2026-05-06 21:16 41.30384 2.08568 26 ft 11 kts 155°
2026-05-06 21:17 41.30316 2.08627 27 ft 11 kts 110°
2026-05-06 21:17 41.30330 2.08729 27 ft 12 kts 66°
2026-05-06 21:17 41.30368 2.08841 27 ft 14 kts 65°
2026-05-06 21:17 41.30414 2.08966 25 ft 16 kts 63°
2026-05-06 21:18 41.30470 2.09119 24 ft 20 kts 65°
2026-05-06 21:18 41.30531 2.09291 27 ft 22 kts 65°
2026-05-06 21:18 41.30596 2.09480 28 ft 24 kts 65°
2026-05-06 21:18 41.30666 2.09683 24 ft 24 kts 65°
2026-05-06 21:19 41.30734 2.09883 26 ft 23 kts 66°
2026-05-06 21:19 41.30800 2.10077 26 ft 23 kts 66°
2026-05-06 21:19 41.30837 2.10256 23 ft 18 kts 90°
2026-05-06 21:19 41.30787 2.10369 25 ft 13 kts 149°
2026-05-06 21:20 41.30781 2.10374 24 ft 0 kts 151°
2026-05-06 21:22 41.30761 2.10388 25 ft 7 kts 151°
2026-05-06 21:23 41.30697 2.10435 26 ft 14 kts 152°
2026-05-06 21:23 41.30603 2.10455 24 ft 11 kts 223°
2026-05-06 21:23 41.30580 2.10416 20 ft 0 kts 235°
2026-05-06 21:23 41.30576 2.10408 20 ft 0 kts 243°
2026-05-06 21:24 41.30573 2.10400 24 ft 1 kts 242°
2026-05-06 21:24 41.30568 2.10386 21 ft 0 kts 250°
2026-05-06 21:25 41.30548 2.10310 22 ft 36 kts 249°
2026-05-06 21:25 41.30319 2.09626 23 ft 124 kts 246°
2026-05-06 21:25 41.29878 2.08336 29 ft 180 kts 244°
2026-05-06 21:26 41.29298 2.06714 233 ft 200 kts 245°
2026-05-06 21:26 41.28684 2.05033 816 ft 201 kts 244°
2026-05-06 21:26 41.28123 2.03395 1977 ft 191 kts 245°
2026-05-06 21:26 41.27561 2.01717 2646 ft 208 kts 246°
2026-05-06 21:27 41.26948 1.99878 3179 ft 224 kts 246°
2026-05-06 21:27 41.26309 1.97985 3996 ft 225 kts 243°
2026-05-06 21:27 41.25288 1.96395 4733 ft 232 kts 216°
2026-05-06 21:27 41.23868 1.95339 5514 ft 236 kts 207°
2026-05-06 21:28 41.22386 1.94349 5944 ft 241 kts 209°
2026-05-06 21:28 41.20930 1.93246 6005 ft 241 kts 212°
2026-05-06 21:28 41.19518 1.92037 6243 ft 242 kts 215°
2026-05-06 21:28 41.18115 1.90782 6865 ft 244 kts 210°
2026-05-06 21:29 41.16496 1.90192 7729 ft 246 kts 181°
2026-05-06 21:29 41.14812 1.90724 8445 ft 256 kts 153°
2026-05-06 21:29 41.13347 1.92094 9220 ft 260 kts 143°
2026-05-06 21:29 41.11933 1.93620 9956 ft 265 kts 142°
2026-05-06 21:30 41.10489 1.95165 10678 ft 268 kts 143°
2026-05-06 21:30 41.09021 1.96690 11413 ft 269 kts 143°
2026-05-06 21:30 41.07524 1.98207 12155 ft 272 kts 144°
2026-05-06 21:30 41.05941 1.99601 12802 ft 278 kts 150°
2026-05-06 21:31 41.04230 2.00987 13034 ft 299 kts 150°
2026-05-06 21:31 41.00706 2.03963 13399 ft 336 kts 143°
2026-05-06 21:31 40.97412 2.08737 13919 ft 365 kts 125°
2026-05-06 21:31 40.94484 2.14317 14954 ft 373 kts 127°